Point Hope, AK

5:35 AM AKST on January 18, 2017 (GMT -0900)
Point Hope

Weather History for PAPO - June, 2013

Change the Weather History Date:

Tuesday, June 11, 2013

  Actual Average Record
Temperature  
Mean Temperature 32 °F -  
Max Temperature 33 °F 39 °F 51 °F (1999)
Min Temperature 32 °F 31 °F 30 °F (1998)
Degree Days  
Heating Degree Days 32    
Moisture  
Dew Point 32 °F    
Average Humidity 95    
Maximum Humidity 100    
Minimum Humidity 87    
Precipitation  
Precipitation 0.00 in - - ()
Sea Level Pressure  
Sea Level Pressure 30.22 in    
Wind  
Wind Speed 20 mph (SSE)    
Max Wind Speed 24 mph    
Max Gust Speed 29 mph    
Visibility 1 miles    
Events      
Averages and records for this station are not official NWS values.
T = Trace of Precipitation, MM = Missing Value Source: NWS Daily Summary

Daily Weather History Graph

Daily Weather History Graph

Search for Another Location

Airport or City:

Trip Planner

Search our weather history database for the weather conditions in past years. The results will help you decide how hot, cold, wet, or windy it might be!

Date:

Astronomy

Dec. 31, 1969 Rise Set
Actual Time Sun does not rise Sun does not rise
Civil Twilight Sun does not rise Sun does not rise
Nautical Twilight Sun does not rise Sun does not rise
Astronomical Twilight Sun does not rise Sun does not rise
Moon 8:11 AM AKDT (6/11) 2:37 AM AKDT (6/11)
Length of Visible Light 24h 00m
Length of Day
24h 00m
Waxing Crescent, 9% of the Moon is Illuminated
Jun 11
Waxing Crescent
Jun 16
First Quarter
Jun 23
Full
Jun 29
Last Quarter
Jul 7
New

Hourly Weather History & Observations

Time (AKDT) Temp. Windchill Dew Point Humidity Pressure Visibility Wind Dir Wind Speed Gust Speed Precip Events Conditions
12:16 AM 33.8 °F 21.9 °F 30.2 °F 87% 30.23 in 0.5 mi SSE 21.9 mph - N/A   Overcast
12:36 AM 33.8 °F 22.2 °F 30.2 °F 87% 30.23 in 0.5 mi SSE 20.7 mph 27.6 mph N/A   Overcast
12:56 AM 33.8 °F 21.3 °F 30.2 °F 87% 30.22 in 0.5 mi SSE 24.2 mph - N/A   Overcast
1:16 AM 33.8 °F 22.2 °F 30.2 °F 87% 30.23 in 0.5 mi SSE 20.7 mph 27.6 mph N/A   Overcast
1:36 AM 32.0 °F 19.5 °F 30.2 °F 93% 30.22 in 0.5 mi SSE 21.9 mph 26.5 mph N/A   Overcast
1:56 AM 32.0 °F 19.5 °F 30.2 °F 93% 30.22 in 0.5 mi SSE 21.9 mph 28.8 mph N/A   Overcast
2:16 AM 32.0 °F 19.5 °F 30.2 °F 93% 30.23 in 0.5 mi SSE 21.9 mph - N/A   Overcast
2:36 AM 32.0 °F 19.2 °F 30.2 °F 93% 30.22 in 0.5 mi South 23.0 mph - N/A   Overcast
2:56 AM 32.0 °F 19.2 °F 30.2 °F 93% 30.22 in 0.5 mi SSE 23.0 mph 27.6 mph N/A   Overcast
3:16 AM 32.0 °F 19.2 °F 30.2 °F 93% 30.22 in 0.5 mi South 23.0 mph 26.5 mph N/A   Overcast
3:56 AM 32.0 °F 19.8 °F 30.2 °F 93% 30.23 in 0.5 mi SSE 20.7 mph 27.6 mph N/A   Overcast
4:16 AM 32.0 °F 20.1 °F 30.2 °F 93% 30.23 in 0.5 mi SSE 19.6 mph 26.5 mph N/A   Overcast
4:36 AM 32.0 °F 20.1 °F 30.2 °F 93% 30.23 in 0.5 mi SSE 19.6 mph - N/A   Overcast
4:56 AM 32.0 °F 19.2 °F 30.2 °F 93% 30.23 in 0.8 mi SSE 23.0 mph - N/A   Overcast
5:16 AM 32.0 °F 19.8 °F 30.2 °F 93% 30.23 in 0.8 mi South 20.7 mph - N/A   Overcast
5:36 AM 32.0 °F 21.2 °F 30.2 °F 93% 30.23 in 1.0 mi SSE 16.1 mph - N/A   Overcast
5:56 AM 32.0 °F 20.1 °F 30.2 °F 93% 30.23 in 1.0 mi South 19.6 mph 26.5 mph N/A   Overcast
6:16 AM 32.0 °F 19.5 °F 30.2 °F 93% 30.23 in 1.0 mi SSE 21.9 mph - N/A   Overcast
6:36 AM 32.0 °F 19.5 °F 30.2 °F 93% 30.23 in 0.8 mi SSE 21.9 mph 25.3 mph N/A   Overcast
6:56 AM 33.8 °F 22.5 °F 30.2 °F 87% 30.23 in 0.8 mi South 19.6 mph - N/A   Overcast
7:16 AM 33.8 °F 22.8 °F 30.2 °F 87% 30.23 in 0.8 mi South 18.4 mph - N/A   Overcast
7:36 AM 32.0 °F 19.8 °F 30.2 °F 93% 30.23 in 0.8 mi South 20.7 mph 26.5 mph N/A   Overcast
7:56 AM 32.0 °F 20.5 °F 30.2 °F 93% 30.23 in 0.5 mi SSE 18.4 mph 26.5 mph N/A   Overcast
8:16 AM 32.0 °F 19.5 °F 30.2 °F 93% 30.23 in 0.5 mi South 21.9 mph 26.5 mph N/A   Overcast
8:36 AM 33.8 °F 22.5 °F 30.2 °F 87% 30.23 in 0.5 mi SSE 19.6 mph - N/A   Overcast
8:56 AM 33.8 °F 22.5 °F 30.2 °F 87% 30.23 in 0.5 mi South 19.6 mph 25.3 mph N/A   Overcast
9:16 AM 33.8 °F 22.5 °F 30.2 °F 87% 30.23 in 0.5 mi South 19.6 mph - N/A   Overcast
9:36 AM 33.8 °F 22.2 °F 30.2 °F 87% 30.23 in 0.5 mi SSE 20.7 mph - N/A   Overcast
9:56 AM 33.8 °F 22.8 °F 32.0 °F 93% 30.23 in 0.5 mi SSE 18.4 mph - N/A   Overcast
10:16 AM 33.8 °F 22.2 °F 33.8 °F 100% 30.23 in 0.2 mi South 20.7 mph - N/A   Overcast
10:36 AM 33.8 °F 22.8 °F 33.8 °F 100% 30.23 in 0.5 mi SSE 18.4 mph - N/A   Overcast
10:56 AM 33.8 °F 22.8 °F 33.8 °F 100% 30.23 in 0.5 mi South 18.4 mph - N/A   Overcast
11:16 AM 33.8 °F 22.5 °F 33.8 °F 100% 30.23 in 0.5 mi South 19.6 mph - N/A   Overcast
11:36 AM 33.8 °F 22.8 °F 33.8 °F 100% 30.24 in 0.5 mi South 18.4 mph - N/A   Overcast
11:56 AM 33.8 °F 22.2 °F 33.8 °F 100% 30.23 in 0.5 mi South 20.7 mph - N/A   Overcast
12:16 PM 33.8 °F 23.2 °F 32.0 °F 93% 30.24 in 0.5 mi South 17.3 mph - N/A   Overcast
12:36 PM 33.8 °F 23.5 °F 33.8 °F 100% 30.24 in 0.8 mi South 16.1 mph - N/A   Overcast
12:56 PM 33.8 °F 23.9 °F 33.8 °F 100% 30.24 in 0.8 mi South 15.0 mph - N/A   Overcast
1:16 PM 33.8 °F 23.5 °F 32.0 °F 93% 30.24 in 0.8 mi South 16.1 mph - N/A   Overcast
1:36 PM 33.8 °F 21.9 °F 33.8 °F 100% 30.23 in 1.0 mi South 21.9 mph 25.3 mph N/A   Overcast
1:56 PM 33.8 °F 22.8 °F 32.0 °F 93% 30.24 in 1.0 mi South 18.4 mph - N/A   Overcast
2:16 PM 33.8 °F 22.2 °F 33.8 °F 100% 30.23 in 1.2 mi South 20.7 mph - N/A   Overcast
2:36 PM 33.8 °F 22.5 °F 33.8 °F 100% 30.23 in 1.2 mi South 19.6 mph - N/A   Overcast
2:56 PM 33.8 °F 22.8 °F 33.8 °F 100% 30.23 in 1.5 mi South 18.4 mph - N/A   Overcast
3:16 PM 33.8 °F 22.2 °F 33.8 °F 100% 30.23 in 2.0 mi South 20.7 mph - N/A   Overcast
3:36 PM 33.8 °F 22.8 °F 33.8 °F 100% 30.23 in 1.5 mi South 18.4 mph - N/A   Overcast
3:56 PM 33.8 °F 22.5 °F 33.8 °F 100% 30.23 in 1.0 mi South 19.6 mph 23.0 mph N/A   Overcast
4:16 PM 33.8 °F 22.2 °F 33.8 °F 100% 30.22 in 2.5 mi South 20.7 mph 24.2 mph N/A   Overcast
4:36 PM 33.8 °F 22.2 °F 33.8 °F 100% 30.22 in 2.5 mi South 20.7 mph - N/A   Overcast
4:56 PM 33.8 °F 23.2 °F 33.8 °F 100% 30.23 in 2.0 mi South 17.3 mph - N/A   Overcast
5:16 PM 33.8 °F 23.5 °F 32.0 °F 93% 30.22 in 2.0 mi South 16.1 mph - N/A   Overcast
5:36 PM 33.8 °F 23.5 °F 33.8 °F 100% 30.22 in 1.2 mi South 16.1 mph - N/A   Overcast
5:56 PM 33.8 °F 23.2 °F 33.8 °F 100% 30.22 in 1.2 mi South 17.3 mph - N/A   Overcast
6:16 PM 33.8 °F 23.9 °F 33.8 °F 100% 30.22 in 0.8 mi South 15.0 mph - N/A   Overcast
6:36 PM 33.8 °F 23.5 °F 33.8 °F 100% 30.22 in 0.8 mi South 16.1 mph - N/A   Overcast
6:56 PM 33.8 °F 23.5 °F 33.8 °F 100% 30.21 in 0.8 mi South 16.1 mph 19.6 mph N/A   Overcast
7:16 PM 33.8 °F 23.5 °F 33.8 °F 100% 30.21 in 0.5 mi South 16.1 mph - N/A   Overcast
7:36 PM 33.8 °F 23.2 °F 33.8 °F 100% 30.21 in 0.5 mi South 17.3 mph 21.9 mph N/A   Overcast
7:56 PM 33.8 °F 23.5 °F 33.8 °F 100% 30.21 in 0.5 mi South 16.1 mph - N/A   Overcast
8:16 PM 33.8 °F 24.3 °F 33.8 °F 100% 30.22 in 0.5 mi South 13.8 mph - N/A   Overcast
8:36 PM 33.8 °F 23.9 °F 33.8 °F 100% 30.21 in 0.5 mi South 15.0 mph - N/A   Overcast
8:56 PM 33.8 °F 23.5 °F 33.8 °F 100% 30.21 in 0.5 mi SSE 16.1 mph - N/A   Overcast
9:16 PM 33.8 °F 23.2 °F 30.2 °F 87% 30.21 in 0.5 mi SSE 17.3 mph - N/A   Overcast
9:36 PM 33.8 °F 23.5 °F 30.2 °F 87% 30.21 in 0.5 mi SSE 16.1 mph - N/A   Overcast
9:56 PM 33.8 °F 22.8 °F 30.2 °F 87% 30.21 in 0.5 mi SSE 18.4 mph - N/A   Overcast
10:16 PM 33.8 °F 23.9 °F 30.2 °F 87% 30.21 in 0.5 mi SSE 15.0 mph 19.6 mph N/A   Overcast
10:36 PM 33.8 °F 24.3 °F 30.2 °F 87% 30.21 in 0.5 mi SSE 13.8 mph - N/A   Overcast
10:56 PM 32.0 °F 21.2 °F 30.2 °F 93% 30.21 in 0.5 mi SSE 16.1 mph - N/A   Overcast
11:16 PM 32.0 °F 22.1 °F 30.2 °F 93% 30.21 in 0.5 mi SSE 13.8 mph - N/A   Overcast
11:36 PM 32.0 °F 23.0 °F 30.2 °F 93% 30.21 in 0.2 mi South 11.5 mph - N/A   Overcast
11:56 PM 32.0 °F 20.8 °F 30.2 °F 93% 30.20 in 0.5 mi SSE 17.3 mph - N/A   Overcast